WXM80 ListenWXM80 Stop

You find our weather info also at:

UK Metoffice

WeatherCloud

Weather Underground

Northeastern Weather Network

AWEKAS

Citizen Weather Observer Program (CWOP)

HAMweather, WeatherForYou, PWS Weather


Weather Underground History page Text

Daily Summary for September 27, 2017 Units:  Metric    English   Both
« Previous Day
Next Day »
Daily Weekly Monthly Yearly Custom
  High: Low: Average:
Temperature: 26.4 °C 19.4 °C 22.6 °C
Dew Point: 23.7 °C 18.2 °C 21.4 °C
Humidity: 98 % 84 % 93 %
Wind Speed: 7.4 km/h 0 km/h 1 km/h
Wind Gust: 13 km/h - -
Wind:- - ENE
Pressure: 1010.7 hPa 1003.3 hPa -
Precipitation: 0 mm    
Historical Graphs
 
 
Tabular Data for September 27, 2017
Time Temperature Dew Point Pressure Wind Wind Speed Wind Gust Humidity Rainfall Rate (Hourly)
00:02 19.8 °C 18.3 °C 1010.7 hPa Calm     91 % 0 mm
00:07 19.8 °C 18.4 °C 1010.7 hPa Calm     92 % 0 mm
00:12 19.7 °C 18.4 °C 1010.7 hPa Calm     92 % 0 mm
00:17 19.7 °C 18.3 °C 1010.7 hPa Calm     92 % 0 mm
00:22 19.7 °C 18.3 °C 1010.7 hPa Calm     92 % 0 mm
00:27 19.6 °C 18.3 °C 1010.7 hPa Calm     92 % 0 mm
00:32 19.6 °C 18.2 °C 1010.4 hPa Calm     92 % 0 mm
00:37 19.5 °C 18.2 °C 1010.7 hPa Calm     92 % 0 mm
00:42 19.5 °C 18.2 °C 1010.4 hPa Calm     92 % 0 mm
00:47 19.5 °C 18.3 °C 1010.4 hPa Calm     93 % 0 mm
00:48 19.4 °C 18.3 °C 1010.4 hPa Calm     93 % 0 mm
00:53 19.4 °C 18.3 °C 1010.4 hPa Calm     93 % 0 mm
00:58 19.5 °C 18.3 °C 1010.4 hPa Calm     93 % 0 mm
01:03 19.4 °C 18.4 °C 1010.4 hPa Calm     94 % 0 mm
01:08 19.4 °C 18.4 °C 1010.4 hPa SE 0.3 km/h   94 % 0 mm
01:13 19.4 °C 18.4 °C 1010.4 hPa Calm     94 % 0 mm
01:18 19.5 °C 18.5 °C 1010.4 hPa Calm     94 % 0 mm
01:23 19.5 °C 18.5 °C 1010.4 hPa SE 0.5 km/h 1.9 km/h 94 % 0 mm
01:28 19.5 °C 18.5 °C 1010 hPa North 1.4 km/h 3.2 km/h 94 % 0 mm
01:33 19.6 °C 18.7 °C 1010.4 hPa North 0.5 km/h 1.9 km/h 95 % 0 mm
01:39 19.6 °C 18.8 °C 1010 hPa North 0.6 km/h 5.6 km/h 95 % 0 mm
01:44 19.7 °C 18.8 °C 1010.4 hPa Calm   3.7 km/h 95 % 0 mm
01:49 19.8 °C 19.1 °C 1010.4 hPa NNE 1.1 km/h 5.6 km/h 96 % 0 mm
01:54 19.8 °C 19.2 °C 1010.4 hPa Calm     96 % 0 mm
01:59 19.9 °C 19.2 °C 1010 hPa NNE 2.3 km/h 5.6 km/h 96 % 0 mm
02:04 19.9 °C 19.3 °C 1010.4 hPa Calm     96 % 0 mm
02:09 19.9 °C 19.3 °C 1010.4 hPa Calm     96 % 0 mm
02:14 19.9 °C 19.3 °C 1010 hPa Calm     96 % 0 mm
02:19 19.9 °C 19.3 °C 1010 hPa Calm     96 % 0 mm
02:24 19.9 °C 19.3 °C 1010 hPa Calm     96 % 0 mm
02:30 19.9 °C 19.3 °C 1010 hPa Calm     96 % 0 mm
02:35 19.9 °C 19.3 °C 1010 hPa Calm     96 % 0 mm
02:40 19.9 °C 19.3 °C 1010.4 hPa Calm     96 % 0 mm
02:45 19.9 °C 19.3 °C 1010 hPa Calm     96 % 0 mm
02:50 19.9 °C 19.3 °C 1010 hPa Calm     96 % 0 mm
02:55 19.9 °C 19.3 °C 1010 hPa Calm     96 % 0 mm
03:00 19.9 °C 19.3 °C 1010 hPa Calm     96 % 0 mm
03:05 19.9 °C 19.3 °C 1010 hPa Calm     96 % 0 mm
03:10 19.9 °C 19.3 °C 1010 hPa Calm     96 % 0 mm
03:15 19.9 °C 19.2 °C 1010 hPa Calm     96 % 0 mm
03:20 19.9 °C 19.2 °C 1010 hPa Calm     96 % 0 mm
03:26 19.9 °C 19.2 °C 1009.7 hPa Calm     96 % 0 mm
03:31 19.8 °C 19 °C 1009.7 hPa Calm   1.6 km/h 95 % 0 mm
03:33 19.8 °C 19 °C 1009.7 hPa NNE 0.3 km/h 1.9 km/h 95 % 0 mm
03:39 19.8 °C 18.9 °C 1009.7 hPa Calm     95 % 0 mm
03:44 19.8 °C 18.9 °C 1009.7 hPa Calm     95 % 0 mm
03:49 19.7 °C 18.9 °C 1009.7 hPa Calm     95 % 0 mm
03:54 19.7 °C 18.9 °C 1009.7 hPa Calm     95 % 0 mm
03:59 19.7 °C 18.8 °C 1009.7 hPa Calm     95 % 0 mm
04:04 19.7 °C 18.8 °C 1009.7 hPa Calm     95 % 0 mm
04:09 19.6 °C 18.8 °C 1009.7 hPa Calm     95 % 0 mm
04:14 19.6 °C 18.8 °C 1009.7 hPa Calm     95 % 0 mm
04:19 19.6 °C 18.8 °C 1009.7 hPa Calm     95 % 0 mm
04:24 19.6 °C 18.7 °C 1009.7 hPa Calm     95 % 0 mm
04:29 19.6 °C 18.9 °C 1009.7 hPa Calm     96 % 0 mm
04:34 19.6 °C 18.9 °C 1009.4 hPa Calm     96 % 0 mm
04:39 19.6 °C 18.9 °C 1009.4 hPa NNE 0.2 km/h 1.9 km/h 96 % 0 mm
04:44 19.6 °C 18.9 °C 1009.7 hPa Calm     96 % 0 mm
04:49 19.7 °C 19 °C 1009.4 hPa Calm     96 % 0 mm
04:54 19.7 °C 19 °C 1009.4 hPa Calm     96 % 0 mm
04:59 19.7 °C 19 °C 1009.4 hPa NNE 0.2 km/h 1.9 km/h 96 % 0 mm
05:04 19.8 °C 19.1 °C 1009.4 hPa NNE 0.5 km/h 3.7 km/h 96 % 0 mm
05:06 19.7 °C 19.1 °C 1009.4 hPa Calm   3.2 km/h 96 % 0 mm
05:11 19.8 °C 19.1 °C 1009.4 hPa Calm     96 % 0 mm
05:15 19.9 °C 19.4 °C 1009.4 hPa Calm     97 % 0 mm
05:18 19.9 °C 19.4 °C 1009.4 hPa Calm     97 % 0 mm
05:23 20.1 °C 19.6 °C 1009.4 hPa NNE 0.2 km/h 1.9 km/h 97 % 0 mm
05:28 20.3 °C 19.8 °C 1009.4 hPa NE 1.6 km/h 5.6 km/h 97 % 0 mm
05:33 20.6 °C 20.3 °C 1009.4 hPa NE 0.2 km/h 1.9 km/h 98 % 0 mm
05:38 20.8 °C 20.3 °C 1009.4 hPa NE 1 km/h 3.7 km/h 97 % 0 mm
05:43 20.9 °C 20.4 °C 1009.4 hPa ENE 0.8 km/h 6.4 km/h 97 % 0 mm
05:48 21 °C 20.7 °C 1009.4 hPa ENE 2.6 km/h 5.6 km/h 98 % 0 mm
05:53 21.1 °C 20.7 °C 1009.4 hPa Calm   1.9 km/h 98 % 0 mm
05:58 21.1 °C 20.7 °C 1009.4 hPa Calm     98 % 0 mm
06:03 21.1 °C 20.8 °C 1009.4 hPa Calm   1.6 km/h 98 % 0 mm
06:08 21.2 °C 20.7 °C 1009.4 hPa Calm   1.9 km/h 97 % 0 mm
06:13 21.2 °C 20.7 °C 1009.4 hPa Calm   1.9 km/h 97 % 0 mm
06:18 21.2 °C 20.7 °C 1009.4 hPa ENE 0.3 km/h 1.9 km/h 97 % 0 mm
06:23 21.2 °C 20.7 °C 1009.7 hPa Calm   1.9 km/h 97 % 0 mm
06:29 21.2 °C 20.7 °C 1009.7 hPa ENE 0.5 km/h 1.9 km/h 97 % 0 mm
06:30 21.2 °C 20.7 °C 1009.7 hPa NE 1.3 km/h 5.6 km/h 97 % 0 mm
06:35 21.2 °C 20.7 °C 1009.7 hPa Calm     97 % 0 mm
06:40 21.2 °C 20.7 °C 1009.7 hPa ENE 2.4 km/h 5.6 km/h 97 % 0 mm
06:45 21.2 °C 20.7 °C 1009.7 hPa Calm   3.7 km/h 97 % 0 mm
06:50 21.2 °C 20.7 °C 1009.7 hPa ENE 0.6 km/h 3.7 km/h 97 % 0 mm
06:56 21.3 °C 20.8 °C 1009.7 hPa Calm   1.9 km/h 97 % 0 mm
07:01 21.3 °C 20.8 °C 1009.7 hPa ENE 0.6 km/h 1.9 km/h 97 % 0 mm
07:06 21.3 °C 20.8 °C 1010 hPa Calm   6.4 km/h 97 % 0 mm
07:11 21.3 °C 20.8 °C 1009.7 hPa NE 0.3 km/h 5.6 km/h 97 % 0 mm
07:15 21.3 °C 20.8 °C 1009.7 hPa ENE 1.6 km/h 6.4 km/h 97 % 0 mm
07:20 21.3 °C 21 °C 1009.7 hPa NE 2.7 km/h 6.4 km/h 98 % 0 mm
07:25 21.3 °C 21 °C 1009.7 hPa NE 2.6 km/h 4.8 km/h 98 % 0 mm
07:30 21.3 °C 21 °C 1009.7 hPa NE 3.2 km/h 11.3 km/h 98 % 0 mm
07:35 21.3 °C 21 °C 1009.7 hPa NNE 4.2 km/h 5.6 km/h 98 % 0 mm
07:40 21.3 °C 21 °C 1009.7 hPa NNE 1.6 km/h 8 km/h 98 % 0 mm
07:46 21.3 °C 21 °C 1009.7 hPa NE 1.6 km/h 6.4 km/h 98 % 0 mm
07:50 21.3 °C 20.8 °C 1009.7 hPa ENE 1.6 km/h 8 km/h 97 % 0 mm
07:56 21.3 °C 20.8 °C 1009.7 hPa NE 1.6 km/h 6.4 km/h 97 % 0 mm
08:01 21.3 °C 20.8 °C 1009.7 hPa NNE 0.6 km/h 7.4 km/h 97 % 0 mm
08:06 21.3 °C 20.8 °C 1009.7 hPa NE 2.9 km/h 5.6 km/h 97 % 0 mm
08:11 21.2 °C 20.7 °C 1009.7 hPa NE 2.3 km/h 5.6 km/h 97 % 0 mm
08:16 21.2 °C 20.7 °C 1009.7 hPa ENE 3.5 km/h 5.6 km/h 97 % 0 mm
08:21 21.2 °C 20.7 °C 1009.7 hPa ENE 2.9 km/h 5.6 km/h 97 % 0 mm
08:26 21.2 °C 20.7 °C 1009.4 hPa NE 0.5 km/h 5.6 km/h 97 % 0 mm
08:31 21.2 °C 20.7 °C 1009.4 hPa NE 3.7 km/h 8 km/h 97 % 0 mm
08:36 21.2 °C 20.7 °C 1009.7 hPa NE 1.6 km/h 5.6 km/h 97 % 0 mm
08:41 21.3 °C 20.8 °C 1009.7 hPa NE 0.2 km/h 1.9 km/h 97 % 0 mm
08:46 21.3 °C 20.8 °C 1009.7 hPa NE 2.9 km/h 11.1 km/h 97 % 0 mm
08:51 21.3 °C 20.8 °C 1009.7 hPa NE 2.1 km/h 5.6 km/h 97 % 0 mm
08:56 21.3 °C 20.8 °C 1009.7 hPa NE 2.7 km/h 13 km/h 97 % 0 mm
09:02 21.4 °C 20.9 °C 1009.7 hPa NE 3.7 km/h 5.6 km/h 97 % 0 mm
09:07 21.4 °C 20.9 °C 1009.7 hPa NE 2.9 km/h 5.6 km/h 97 % 0 mm
09:12 21.4 °C 20.9 °C 1009.7 hPa ENE 1.3 km/h 3.7 km/h 97 % 0 mm
09:17 21.4 °C 20.9 °C 1009.7 hPa NE 2.1 km/h 8 km/h 97 % 0 mm
09:22 21.5 °C 21 °C 1009.7 hPa ENE 3.5 km/h 9.3 km/h 97 % 0 mm
09:27 21.5 °C 21 °C 1009.7 hPa NE 0.3 km/h 1.9 km/h 97 % 0 mm
09:32 21.6 °C 21.1 °C 1009.7 hPa NE 4.7 km/h 7.4 km/h 97 % 0 mm
09:37 21.6 °C 21.1 °C 1009.7 hPa ENE 2.1 km/h 5.6 km/h 97 % 0 mm
09:42 21.7 °C 21.2 °C 1009.7 hPa ENE 2.1 km/h 7.4 km/h 97 % 0 mm
09:47 21.7 °C 21.2 °C 1009.7 hPa East 1 km/h 4.8 km/h 97 % 0 mm
09:52 21.7 °C 21.2 °C 1009.7 hPa NE 0.2 km/h 1.6 km/h 97 % 0 mm
09:57 21.8 °C 21.3 °C 1009.4 hPa ENE 1.1 km/h 5.6 km/h 97 % 0 mm
09:58 21.8 °C 21.3 °C 1009.4 hPa ENE 0.5 km/h 3.7 km/h 97 % 0 mm
10:03 21.9 °C 21.4 °C 1009.4 hPa ENE 0.5 km/h 1.9 km/h 97 % 0 mm
10:08 21.9 °C 21.4 °C 1009.4 hPa NE 1.4 km/h 5.6 km/h 97 % 0 mm
10:13 22 °C 21.5 °C 1009.4 hPa NE 2.3 km/h 4.8 km/h 97 % 0 mm
10:18 22.1 °C 21.4 °C 1009.4 hPa Calm   1.9 km/h 96 % 0 mm
10:23 22.2 °C 21.5 °C 1009 hPa NE 2.6 km/h 5.6 km/h 96 % 0 mm
10:28 22.3 °C 21.6 °C 1009 hPa NE 2.1 km/h 4.8 km/h 96 % 0 mm
10:33 22.3 °C 21.7 °C 1009 hPa ENE 1.1 km/h 3.2 km/h 96 % 0 mm
10:38 22.4 °C 21.7 °C 1009 hPa NE 1.9 km/h 3.7 km/h 96 % 0 mm
10:43 22.4 °C 21.8 °C 1009 hPa ENE 3.9 km/h 7.4 km/h 96 % 0 mm
10:48 22.5 °C 21.7 °C 1009 hPa ENE 0.2 km/h 7.4 km/h 95 % 0 mm
10:53 22.6 °C 21.7 °C 1009 hPa ENE 1.9 km/h 3.7 km/h 95 % 0 mm
10:58 22.6 °C 21.8 °C 1009 hPa ENE 0.2 km/h 1.9 km/h 95 % 0 mm
11:03 22.7 °C 21.9 °C 1009 hPa Calm   1.9 km/h 95 % 0 mm
11:08 22.8 °C 22 °C 1009 hPa NE 0.3 km/h 1.9 km/h 95 % 0 mm
11:13 22.9 °C 22.1 °C 1009 hPa NE 0.6 km/h 3.7 km/h 95 % 0 mm
11:18 23 °C 22.2 °C 1009 hPa NE 0.2 km/h 1.9 km/h 95 % 0 mm
11:23 23.1 °C 22.3 °C 1009 hPa NE 0.3 km/h 1.9 km/h 95 % 0 mm
11:28 23.2 °C 22.4 °C 1009 hPa NE 1.1 km/h 1.9 km/h 95 % 0 mm
11:33 23.3 °C 22.3 °C 1009 hPa NE 0.3 km/h 1.9 km/h 94 % 0 mm
11:39 23.5 °C 22.5 °C 1009 hPa NE 0.2 km/h 1.9 km/h 94 % 0 mm
11:44 23.7 °C 22.7 °C 1009 hPa NE 1 km/h 3.7 km/h 94 % 0 mm
11:49 23.7 °C 22.5 °C 1009 hPa East 2.4 km/h 5.6 km/h 93 % 0 mm
11:54 23.8 °C 22.4 °C 1008.7 hPa NE 2.6 km/h 8 km/h 92 % 0 mm
11:59 23.9 °C 22.5 °C 1008.7 hPa Calm     92 % 0 mm
12:04 24.1 °C 22.7 °C 1008.7 hPa ENE 1 km/h 3.7 km/h 92 % 0 mm
12:09 24.2 °C 22.7 °C 1008.4 hPa NE 4.7 km/h 7.4 km/h 91 % 0 mm
12:14 24.4 °C 22.8 °C 1008.4 hPa North 0.8 km/h 5.6 km/h 91 % 0 mm
12:19 24.6 °C 22.8 °C 1008.4 hPa ENE 1.9 km/h 5.6 km/h 90 % 0 mm
12:24 24.8 °C 22.8 °C 1008.4 hPa ENE 3.1 km/h 5.6 km/h 89 % 0 mm
12:29 24.8 °C 22.7 °C 1008.4 hPa NE 1.3 km/h 3.2 km/h 88 % 0 mm
12:34 24.9 °C 22.8 °C 1008 hPa ENE 2.3 km/h 4.8 km/h 88 % 0 mm
12:39 24.9 °C 22.8 °C 1008 hPa NE 2.4 km/h 7.4 km/h 88 % 0 mm
12:44 25 °C 22.7 °C 1008 hPa NE 0.8 km/h 3.7 km/h 87 % 0 mm
12:49 25.1 °C 22.7 °C 1008 hPa ENE 3.4 km/h 7.4 km/h 87 % 0 mm
12:54 25.3 °C 23.2 °C 1008 hPa ENE 6.3 km/h 13 km/h 88 % 0 mm
12:59 25.2 °C 22.7 °C 1007.7 hPa NE 4 km/h 5.6 km/h 86 % 0 mm
13:04 25.2 °C 22.9 °C 1008 hPa ENE 2.1 km/h 5.6 km/h 87 % 0 mm
13:09 25.2 °C 22.9 °C 1007.7 hPa ENE 1.1 km/h 5.6 km/h 87 % 0 mm
13:14 25.3 °C 23 °C 1007.7 hPa NNE 5.1 km/h 9.3 km/h 87 % 0 mm
13:19 25.4 °C 23.1 °C 1007.7 hPa NNE 3.4 km/h 9.3 km/h 87 % 0 mm
13:24 25.4 °C 22.9 °C 1007.3 hPa NNW 4 km/h 8 km/h 86 % 0 mm
13:29 25.4 °C 22.9 °C 1007.3 hPa NNE 7.4 km/h 11.1 km/h 86 % 0 mm
13:34 25.4 °C 22.9 °C 1007.3 hPa ENE 2.4 km/h 6.4 km/h 86 % 0 mm
13:39 25.4 °C 22.7 °C 1007.7 hPa North 1.8 km/h 5.6 km/h 85 % 0 mm
13:44 25.4 °C 22.9 °C 1007.3 hPa NNE 3.9 km/h 11.1 km/h 86 % 0 mm
13:49 25.4 °C 22.9 °C 1007.3 hPa NE 1.8 km/h 5.6 km/h 86 % 0 mm
13:54 25.3 °C 22.6 °C 1007.3 hPa ENE 4.8 km/h 11.1 km/h 85 % 0 mm
13:59 25.2 °C 22.5 °C 1007 hPa ENE 2.6 km/h 5.6 km/h 85 % 0 mm
14:04 25.1 °C 22.6 °C 1007.3 hPa ENE 1.3 km/h 7.4 km/h 86 % 0 mm
14:09 25.1 °C 22.8 °C 1007.3 hPa ENE 2.1 km/h 4.8 km/h 87 % 0 mm
14:14 25.1 °C 22.7 °C 1007 hPa ENE 1 km/h 3.7 km/h 87 % 0 mm
14:19 25.1 °C 23 °C 1007 hPa NE 0.2 km/h 1.9 km/h 88 % 0 mm
14:24 25.2 °C 23.1 °C 1007 hPa NE 0.3 km/h   88 % 0 mm
14:29 25.4 °C 23.3 °C 1007 hPa ENE 2.3 km/h 6.4 km/h 88 % 0 mm
14:34 25.6 °C 23.2 °C 1006.7 hPa NE 3.5 km/h 5.6 km/h 87 % 0 mm
14:38 25.7 °C 23.3 °C 1006.7 hPa NE 1 km/h 3.7 km/h 87 % 0 mm
14:43 25.8 °C 23.3 °C 1006.7 hPa NE 2.3 km/h 5.6 km/h 86 % 0 mm
14:48 25.9 °C 23.2 °C 1006.7 hPa NE 0.8 km/h 3.7 km/h 85 % 0 mm
14:53 25.9 °C 23.4 °C 1006.7 hPa NE 0.3 km/h 1.9 km/h 86 % 0 mm
14:58 26.1 °C 23.3 °C 1006.3 hPa ENE 1.8 km/h 3.7 km/h 85 % 0 mm
15:03 26.2 °C 23.4 °C 1006.3 hPa ENE 1 km/h 3.7 km/h 85 % 0 mm
15:08 26.2 °C 23.3 °C 1006 hPa ENE 2.4 km/h 5.6 km/h 84 % 0 mm
15:13 26.3 °C 23.6 °C 1006 hPa ENE 3.5 km/h 5.6 km/h 85 % 0 mm
15:18 26.3 °C 23.4 °C 1006 hPa ENE 0.6 km/h 5.6 km/h 84 % 0 mm
15:23 26.3 °C 23.4 °C 1006 hPa NE 0.8 km/h 5.6 km/h 84 % 0 mm
15:28 26.4 °C 23.7 °C 1006 hPa ENE 2.9 km/h 4.8 km/h 85 % 0 mm
15:33 26.4 °C 23.5 °C 1005.6 hPa NE 1.4 km/h 5.6 km/h 84 % 0 mm
15:38 26.4 °C 23.4 °C 1005.6 hPa NE 1.3 km/h 1.9 km/h 84 % 0 mm
15:43 26.4 °C 23.5 °C 1005.6 hPa NE 2.6 km/h 5.6 km/h 84 % 0 mm
15:48 26.3 °C 23.4 °C 1005.6 hPa North 3.4 km/h 5.6 km/h 84 % 0 mm
15:53 26.3 °C 23.4 °C 1005.6 hPa East 4.2 km/h 5.6 km/h 84 % 0 mm
15:58 26.2 °C 23.3 °C 1005.6 hPa ENE 5 km/h 11.1 km/h 84 % 0 mm
16:03 26.1 °C 23.2 °C 1005.6 hPa NE 2.3 km/h 5.6 km/h 84 % 0 mm
16:09 26 °C 23.5 °C 1005.6 hPa NE 1.6 km/h 5.6 km/h 86 % 0 mm
16:14 25.8 °C 23.3 °C 1005.6 hPa NE 1.3 km/h 5.6 km/h 86 % 0 mm
16:19 25.8 °C 23.3 °C 1005.6 hPa ENE 5.5 km/h 13 km/h 86 % 0 mm
16:24 25.7 °C 23.2 °C 1005.6 hPa NE 2.4 km/h 5.6 km/h 86 % 0 mm
16:29 25.6 °C 23.2 °C 1005.6 hPa Calm   1.9 km/h 87 % 0 mm
16:34 25.4 °C 23.3 °C 1005.6 hPa NE 1.6 km/h 5.6 km/h 88 % 0 mm
16:39 25.3 °C 23.2 °C 1005.3 hPa Calm   1.9 km/h 88 % 0 mm
16:44 25.3 °C 23.2 °C 1005.6 hPa ENE 2.3 km/h 5.6 km/h 88 % 0 mm
16:49 25.2 °C 23.1 °C 1005.3 hPa ENE 0.6 km/h 3.7 km/h 88 % 0 mm
16:54 25.2 °C 23.2 °C 1005.6 hPa ENE 0.5 km/h 1.9 km/h 89 % 0 mm
16:59 25.1 °C 23.1 °C 1005.3 hPa ENE 0.2 km/h 1.6 km/h 89 % 0 mm
17:04 25.1 °C 23.1 °C 1005.3 hPa ENE 0.5 km/h 1.9 km/h 89 % 0 mm
17:09 25 °C 23.1 °C 1005.6 hPa SE 0.5 km/h 1.9 km/h 89 % 0 mm
17:14 24.9 °C 23.2 °C 1005.6 hPa NE 1.4 km/h 3.7 km/h 90 % 0 mm
17:19 24.9 °C 23.1 °C 1005.6 hPa NE 0.8 km/h 3.7 km/h 90 % 0 mm
17:24 24.8 °C 23.1 °C 1005.6 hPa NE 1.3 km/h 3.7 km/h 90 % 0 mm
17:29 24.8 °C 23 °C 1005.3 hPa NE 1.3 km/h 1.9 km/h 90 % 0 mm
17:34 24.8 °C 23 °C 1005.3 hPa NE 1.1 km/h 5.6 km/h 90 % 0 mm
17:39 24.7 °C 23.2 °C 1005.3 hPa NE 0.6 km/h 1.9 km/h 91 % 0 mm
17:44 24.7 °C 23.1 °C 1005.3 hPa Calm   1.9 km/h 91 % 0 mm
17:49 24.6 °C 23.1 °C 1005.3 hPa NE 0.2 km/h 3.7 km/h 91 % 0 mm
17:54 24.6 °C 23 °C 1005.3 hPa NE 0.2 km/h 1.9 km/h 91 % 0 mm
18:00 24.5 °C 22.9 °C 1005.3 hPa Calm     91 % 0 mm
18:05 24.5 °C 22.9 °C 1005.3 hPa Calm     91 % 0 mm
18:10 24.4 °C 22.9 °C 1005.3 hPa NE 0.3 km/h 1.9 km/h 91 % 0 mm
18:15 24.4 °C 23 °C 1005 hPa NE 0.2 km/h 1.9 km/h 92 % 0 mm
18:20 24.3 °C 22.9 °C 1005 hPa Calm     92 % 0 mm
18:25 24.3 °C 22.9 °C 1005 hPa NE 0.3 km/h 3.2 km/h 92 % 0 mm
18:30 24.2 °C 22.8 °C 1005 hPa NE 0.2 km/h 1.9 km/h 92 % 0 mm
18:35 24.2 °C 22.8 °C 1005 hPa Calm   1.9 km/h 92 % 0 mm
18:40 24.2 °C 22.8 °C 1005 hPa Calm     92 % 0 mm
18:45 24.1 °C 22.8 °C 1005 hPa Calm   1.9 km/h 93 % 0 mm
18:50 24.1 °C 22.8 °C 1005 hPa NE 0.2 km/h 1.9 km/h 93 % 0 mm
18:55 24 °C 22.8 °C 1005 hPa Calm     93 % 0 mm
19:00 23.9 °C 22.7 °C 1005 hPa Calm   1.9 km/h 93 % 0 mm
19:05 23.9 °C 22.7 °C 1005 hPa Calm     93 % 0 mm
19:10 23.8 °C 22.6 °C 1005 hPa Calm     93 % 0 mm
19:15 23.8 °C 22.6 °C 1005 hPa NE 0.8 km/h 5.6 km/h 93 % 0 mm
19:20 23.7 °C 22.7 °C 1005 hPa NE 0.8 km/h 1.9 km/h 94 % 0 mm
19:25 23.7 °C 22.7 °C 1004.6 hPa NE 1 km/h 5.6 km/h 94 % 0 mm
19:30 23.7 °C 22.7 °C 1005 hPa Calm     94 % 0 mm
19:35 23.6 °C 22.6 °C 1004.6 hPa Calm     94 % 0 mm
19:40 23.6 °C 22.6 °C 1004.6 hPa Calm     94 % 0 mm
19:45 23.6 °C 22.6 °C 1004.6 hPa Calm     94 % 0 mm
19:50 23.5 °C 22.5 °C 1005 hPa Calm     94 % 0 mm
19:55 23.4 °C 22.4 °C 1005 hPa Calm     94 % 0 mm
20:00 23.4 °C 22.4 °C 1005 hPa Calm     94 % 0 mm
20:05 23.4 °C 22.4 °C 1005 hPa Calm     94 % 0 mm
20:10 23.3 °C 22.5 °C 1005 hPa Calm   1.9 km/h 95 % 0 mm
20:15 23.3 °C 22.3 °C 1005 hPa Calm     94 % 0 mm
20:20 23.3 °C 22.5 °C 1005 hPa Calm     95 % 0 mm
20:26 23.3 °C 22.4 °C 1005 hPa Calm     95 % 0 mm
20:31 23.2 °C 22.4 °C 1005 hPa Calm     95 % 0 mm
20:36 23.2 °C 22.3 °C 1005 hPa Calm     95 % 0 mm
20:41 23.2 °C 22.3 °C 1005 hPa Calm     95 % 0 mm
20:46 23.1 °C 22.3 °C 1005 hPa Calm     95 % 0 mm
20:51 23.1 °C 22.2 °C 1005.3 hPa Calm     95 % 0 mm
20:56 23.1 °C 22.2 °C 1005 hPa Calm   1.6 km/h 95 % 0 mm
21:01 23 °C 22.2 °C 1005 hPa Calm     95 % 0 mm
21:06 22.9 °C 22.1 °C 1005 hPa NE 0.3 km/h 1.6 km/h 95 % 0 mm
21:11 22.9 °C 22.1 °C 1005 hPa Calm     95 % 0 mm
21:16 22.9 °C 22.1 °C 1004.6 hPa Calm     95 % 0 mm
21:21 22.9 °C 22.1 °C 1004.6 hPa Calm     95 % 0 mm
21:26 22.9 °C 22.1 °C 1005 hPa Calm     95 % 0 mm
21:31 22.8 °C 22 °C 1004.6 hPa Calm     95 % 0 mm
21:36 22.8 °C 22 °C 1004.6 hPa Calm     95 % 0 mm
21:41 22.8 °C 21.9 °C 1004.6 hPa Calm   1.9 km/h 95 % 0 mm
21:46 22.8 °C 21.9 °C 1004.6 hPa Calm     95 % 0 mm
21:51 22.8 °C 22.1 °C 1004.6 hPa Calm     96 % 0 mm
21:56 22.8 °C 22.1 °C 1004.6 hPa Calm     96 % 0 mm
22:01 22.7 °C 22.1 °C 1004.6 hPa Calm     96 % 0 mm
22:06 22.7 °C 22.1 °C 1004.6 hPa Calm     96 % 0 mm
22:11 22.7 °C 22.1 °C 1004.6 hPa Calm     96 % 0 mm
22:16 22.7 °C 22.1 °C 1004.6 hPa Calm     96 % 0 mm
22:21 22.7 °C 22 °C 1004.6 hPa Calm     96 % 0 mm
22:26 22.7 °C 22 °C 1004.6 hPa Calm     96 % 0 mm
22:31 22.7 °C 22.1 °C 1004.3 hPa Calm     96 % 0 mm
22:36 22.7 °C 22.1 °C 1004.3 hPa Calm     96 % 0 mm
22:41 22.7 °C 22.1 °C 1004.3 hPa Calm     96 % 0 mm
22:46 22.7 °C 22.1 °C 1003.9 hPa Calm     96 % 0 mm
22:51 22.7 °C 22.1 °C 1003.9 hPa Calm     96 % 0 mm
22:56 22.7 °C 22.1 °C 1004.3 hPa Calm   1.9 km/h 96 % 0 mm
23:01 22.7 °C 22.1 °C 1003.9 hPa Calm     96 % 0 mm
23:06 22.7 °C 22.1 °C 1003.9 hPa Calm     96 % 0 mm
23:12 22.7 °C 22.1 °C 1003.9 hPa Calm   1.9 km/h 96 % 0 mm
23:16 22.7 °C 22.1 °C 1003.9 hPa Calm     96 % 0 mm
23:21 22.7 °C 22 °C 1003.9 hPa NE 0.6 km/h 3.7 km/h 96 % 0 mm
23:27 22.7 °C 22.1 °C 1003.9 hPa NNE 2.4 km/h 5.6 km/h 96 % 0 mm
23:32 22.7 °C 22.1 °C 1003.6 hPa NNE 0.8 km/h 1.9 km/h 96 % 0 mm
23:37 22.8 °C 22.1 °C 1003.6 hPa ENE 1 km/h 3.7 km/h 96 % 0 mm
23:42 22.8 °C 22.3 °C 1003.6 hPa ENE 0.2 km/h 1.9 km/h 97 % 0 mm
23:47 22.8 °C 22.3 °C 1003.6 hPa ENE 0.8 km/h 3.7 km/h 97 % 0 mm
23:52 22.8 °C 22.3 °C 1003.6 hPa ENE 0.2 km/h 1.9 km/h 97 % 0 mm
23:57 22.8 °C 22.3 °C 1003.3 hPa Calm     97 % 0 mm
Crab Meadow Weather
Compliments of Weather Underground - 3 mb

Script developed by  Jim McMurry - jmcmurry@mwt.net Adapted for the template by  Wim van der Kuil - Leuven-Template.eu

Weather Terms: Waterspout - In general, a tornado occurring over water. Specifically, it refers to a small, relatively weak rotating column of air over water beneath a towering cumulus or cumulonimbus cloud. They occasionally occur over Lake Michigan in late summer with unusually cold air aloft.